STARLINK-32804, 62846

Orbit data source: Space-Track

STARLINK-32804, 62846 is a payload satellite owned by SpaceX/Seattle (US) in LEO that was launched on Mon, 27 Jan 2025 UTC via an FALCON 9 launch vehicle from the Air Force Eastern Test Range (AFETR). Payload-class satellites include a variety of spacecraft equipped with specific instruments for various scientific and technological missions. These include communications satellites like Starlink; space stations such as the ISS; scientific satellites like the Hubble; Earth observation satellites from companies like Planet Labs, Umbra, and HawkEye 360; GPS; miniature CubeSats for education and research; and military/defense satellites.

Loading next visibility...
Identifier
62846, 2025-019T
Orbit
LEO
Last TLE update
6 hours ago
Origin
Manufacturer
SpaceX/Seattle
Mission
Operational Commercial Communications
Bus & Motor
STARLINK V2M, Unknown motor
Mass
730 kg wet, ~700 kg dry
Launch date (UTC)
2025-01-27 (3 months ago)
Launch vehicle
FALCON 9
Launch site
Air Force Eastern Test Range (AFETR)
Object type
Payload
Rocket body
Debris
Shape & HBR
Box + 2 Pan, 29 m
Radar Cross Section
33.884 m², Large (>1 m²)

Expand to show TLE details & history

TLE from 6 hours ago
0 STARLINK-32804
1 62846U 25019T   25129.07465163 -.00000080  00000-0  66075-5 0  9992
2 62846  43.0010   9.3204 0001141 317.1690  42.9073 15.27586176 16637
Epoch: 2025-05-09T01:47Z
Definitive object data (Epoch: 2025-05-09T01:47:29.9Z)
Latitude
-0.00001°
Longitude
115.30979°
Altitude
482.233 km
Speed
7.626 km/s
True Right ascension
00h 37m 16s
True Declination
0° 00' 00"
Sunlit
Object was in daylight at TLE epoch
Visualization TLE readout
Latitude
-28.60601°
Longitude
78.31643°
Altitude
489.732 km
Speed
7.621 km/s
Apparent Right ascension
00h 42m 31s
Apparent Declination
-42° 54' 11"
Sunlit
Object is in daylight
Visualization observer readout
Local Sidereal Time
16:01:35
Azimuth
111.346° ESE
Elevation
-53.1°
Doppler factor
1
Orbital elements
Apogee altitude
485.759 km
Perigee altitude
484.193 km
Semi-major axis
6,863.113 km
Eccentricity
0.0001141
Inclination
43.001°
RAAN
9.3204°
Arg. of periapsis
317.169°
True anomaly
42.9162°
Mean anomaly
42.9073°
Eccentric anomaly
42.91175°
Mean motion
3.81735 °/min
BSTAR
0.0000066075
Orbital period
94.31 mins
Loading maneuver chart data...
Loading SW <> Apogee altitude chart data...
Loading historical data...
Loading historical data...
Loading historical data...
Loading historical data...
Loading historical data...
Loading historical data...
Loading historical data...

STARLINK-32804 Visibility forecast

Observer location: undefined°, undefined°

Span
Click to sort rows by Start time (UTC) header in descending order
Start Az.
Max El. time (UTC)
Max El. Az.
Max El.
End time (UTC)
End Az.
6 mins2025-05-09 19:15:31.296Z216.7° SW2025-05-09 19:18:31.296Z150.119° SSE31.727°2025-05-09 19:21:31.296Z84.789° E
5 mins2025-05-09 20:55:31.296Z271.632° WNW2025-05-09 20:57:31.296Z6.498° NNE42.255°2025-05-09 21:00:31.296Z69.499° E
5 mins2025-05-09 22:34:31.296Z296.23° NW2025-05-09 22:36:31.296Z2.204° NNE38.904°2025-05-09 22:39:31.296Z81.078° E
5 mins2025-05-10 00:13:31.296Z280.457° WNW2025-05-10 00:15:31.296Z214.426° SW42.704°2025-05-10 00:18:31.296Z121.945° SE
|